Weather History for KEWN - March, 2012

Change the Weather History Date:

Thursday, March 15, 2012

  Actual Average Record
Temperature  
Mean Temperature 67 °F 53 °F  
Max Temperature 84 °F 65 °F 89 °F (1973)
Min Temperature 49 °F 42 °F 24 °F (1993)
Degree Days  
Heating Degree Days 0 12  
Month to date heating degree days 148 211  
Since 1 July heating degree days 1937 2357  
Cooling Degree Days 2 0  
Month to date cooling degree days 15 0  
Year to date cooling degree days 19 3  
Growing Degree Days 15 (Base 50)    
Moisture  
Dew Point 53 °F    
Average Humidity 67    
Maximum Humidity 100    
Minimum Humidity 34    
Precipitation  
Precipitation 0.00 in 0.16 in 1.36 in (1966)
Month to date precipitation 1.72 2.20  
Year to date precipitation 6.37 9.88  
Snow  
Snow 0.00 in - - ()
Month to date snowfall 0.0  
Since 1 July snowfall T  
Snow Depth 0.00 in    
Sea Level Pressure  
Sea Level Pressure 30.26 in    
Wind  
Wind Speed 5 mph (SSW)    
Max Wind Speed 16 mph    
Max Gust Speed 22 mph    
Visibility 4 miles    
Events Fog    
T = Trace of Precipitation, MM = Missing Value Source: NWS Daily Summary

Daily Weather History Graph

Daily Weather History Graph

Search for Another Location

Airport or City:

Trip Planner

Search our weather history database for the weather conditions in past years. The results will help you decide how hot, cold, wet, or windy it might be!

Date:

Astronomy

Mar. 15, 2012 Rise Set
Actual Time 7:18 AM EDT 7:16 PM EDT
Civil Twilight 6:52 AM EDT 7:41 PM EDT
Nautical Twilight 6:23 AM EDT 8:10 PM EDT
Astronomical Twilight 5:53 AM EDT 8:40 PM EDT
Moon 2:30 AM EDT (3/15) 12:44 PM EDT (3/15)
Length of Visible Light 12h 48m
Length of Day
11h 58m
Last Quarter, 43% of the Moon is Illuminated
Mar 15
Last Quarter
Mar 22
New
Mar 30
First Quarter
Apr 6
Full
Apr 13
Last Quarter

Hourly Weather History & Observations

Time (EDT) Temp. Heat Index Dew Point Humidity Pressure Visibility Wind Dir Wind Speed Gust Speed Precip Events Conditions
12:29 AM 55.4 °F - 55.4 °F 100% 30.25 in 1.5 mi Calm Calm - N/A   Clear
12:32 AM 55.4 °F - 53.6 °F 94% 30.25 in 0.5 mi Calm Calm - N/A Fog Fog
12:46 AM 57.2 °F - 53.6 °F 88% 30.25 in 0.5 mi Calm Calm - N/A Fog Fog
12:48 AM 57.2 °F - 53.6 °F 88% 30.25 in 1.0 mi Calm Calm - N/A   Clear
12:54 AM 55.0 °F - 54.0 °F 96% 30.25 in 1.0 mi Calm Calm - N/A   Clear
12:57 AM 53.6 °F - 53.6 °F 100% 30.25 in 0.5 mi Calm Calm - N/A Fog Fog
1:05 AM 55.4 °F - 53.6 °F 94% 30.25 in 0.8 mi Calm Calm - N/A   Clear
1:12 AM 55.4 °F - 53.6 °F 94% 30.25 in 2.0 mi Calm Calm - N/A   Clear
1:20 AM 53.6 °F - 53.6 °F 100% 30.25 in 0.8 mi Calm Calm - N/A   Clear
1:30 AM 55.4 °F - 53.6 °F 94% 30.25 in 3.0 mi Calm Calm - N/A   Clear
1:38 AM 53.6 °F - 51.8 °F 94% 30.25 in 1.2 mi Calm Calm - N/A   Clear
1:42 AM 51.8 °F - 51.8 °F 100% 30.25 in 0.5 mi Calm Calm - N/A Fog Fog
1:51 AM 53.6 °F - 51.8 °F 94% 30.25 in 0.2 mi Calm Calm - N/A Fog Fog
1:54 AM 53.1 °F - 51.1 °F 93% 30.25 in 0.2 mi Calm Calm - N/A Fog Fog
2:08 AM 55.4 °F - 53.6 °F 94% 30.26 in 1.0 mi Calm Calm - N/A   Mist
2:11 AM 55.4 °F - 53.6 °F 94% 30.26 in 2.0 mi Calm Calm - N/A   Partly Cloudy
2:18 AM 53.6 °F - 51.8 °F 94% 30.25 in 7.0 mi Calm Calm - N/A   Scattered Clouds
2:21 AM 53.6 °F - 51.8 °F 94% 30.25 in 1.5 mi Calm Calm - N/A   Scattered Clouds
2:23 AM 53.6 °F - 51.8 °F 94% 30.25 in 0.8 mi Calm Calm - N/A   Mist
2:30 AM 53.6 °F - 51.8 °F 94% 30.25 in 0.2 mi Calm Calm - N/A Fog Fog
2:40 AM 53.6 °F - 53.6 °F 100% 30.25 in 0.2 mi Calm Calm - N/A Fog Fog
2:54 AM 53.1 °F - 53.1 °F 100% 30.25 in 0.2 mi Calm Calm - N/A Fog Fog
3:23 AM 53.6 °F - 53.6 °F 100% 30.24 in 1.0 mi Calm Calm - N/A   Mist
3:45 AM 53.6 °F - 53.6 °F 100% 30.24 in 0.5 mi Calm Calm - N/A Fog Fog
3:54 AM 54.0 °F - 54.0 °F 100% 30.24 in 0.5 mi Calm Calm - N/A Fog Fog
3:57 AM 51.8 °F - 51.8 °F 100% 30.24 in 1.0 mi Calm Calm - N/A   Mist
4:03 AM 51.8 °F - 51.8 °F 100% 30.24 in 0.5 mi Calm Calm - N/A Fog Fog
4:46 AM 51.8 °F - 51.8 °F 100% 30.24 in 1.0 mi Calm Calm - N/A   Mist
4:48 AM 53.6 °F - 51.8 °F 94% 30.25 in 2.0 mi South 3.5 mph - N/A   Scattered Clouds
4:54 AM 53.1 °F - 51.1 °F 93% 30.25 in 4.0 mi SSW 3.5 mph - N/A   Partly Cloudy
5:33 AM 51.8 °F - 51.8 °F 100% 30.26 in 4.0 mi Calm Calm - N/A   Mostly Cloudy
5:41 AM 50.0 °F - 50.0 °F 100% 30.26 in 1.5 mi Calm Calm - N/A   Mostly Cloudy
5:44 AM 50.0 °F - 50.0 °F 100% 30.26 in 0.5 mi Calm Calm - N/A Fog Fog
5:54 AM 52.0 °F - 50.0 °F 93% 30.27 in 0.5 mi Calm Calm - N/A Fog Fog
5:56 AM 51.8 °F - 50.0 °F 94% 30.27 in 1.0 mi Calm Calm - N/A   Mist
6:14 AM 50.0 °F - 50.0 °F 100% 30.27 in 0.5 mi Calm Calm - N/A Fog Fog
6:38 AM 51.8 °F - 48.2 °F 88% 30.27 in 1.0 mi Calm Calm - N/A   Mist
6:45 AM 50.0 °F - 48.2 °F 94% 30.27 in 0.5 mi Calm Calm - N/A Fog Fog
6:51 AM 50.0 °F - 48.2 °F 94% 30.28 in 5.0 mi SSE 3.5 mph - N/A Fog Shallow Fog
6:54 AM 48.9 °F - 48.0 °F 97% 30.28 in 5.0 mi SSE 3.5 mph - N/A Fog Shallow Fog
7:54 AM 52.0 °F - 51.1 °F 97% 30.29 in 5.0 mi Calm Calm - N/A Fog Shallow Fog
8:54 AM 59.0 °F - 57.9 °F 96% 30.29 in 7.0 mi Calm Calm - N/A   Clear
9:54 AM 68.0 °F - 61.0 °F 78% 30.30 in 10.0 mi Calm Calm - N/A   Clear
10:54 AM 73.9 °F - 61.0 °F 64% 30.30 in 10.0 mi Calm Calm - N/A   Clear
11:54 AM 79.0 °F - 57.9 °F 48% 30.30 in 10.0 mi South 8.1 mph - N/A   Mostly Cloudy
12:01 PM 80.6 °F 80.8 °F 57.2 °F 45% 30.30 in 10.0 mi South 8.1 mph - N/A   Clear
12:54 PM 78.1 °F - 55.9 °F 46% 30.29 in 10.0 mi SW 5.8 mph - N/A   Clear
1:54 PM 82.9 °F - 51.1 °F 33% 30.26 in 10.0 mi SSW 9.2 mph - N/A   Scattered Clouds
2:54 PM 82.0 °F 81.4 °F 55.0 °F 39% 30.23 in 10.0 mi South 10.4 mph - N/A   Scattered Clouds
3:54 PM 82.9 °F - 51.1 °F 33% 30.22 in 10.0 mi South 10.4 mph 18.4 mph N/A   Mostly Cloudy
4:54 PM 79.0 °F - 51.1 °F 38% 30.21 in 10.0 mi SSW 12.7 mph 21.9 mph N/A   Clear
5:54 PM 78.1 °F - 53.1 °F 42% 30.22 in 10.0 mi SSW 11.5 mph - N/A   Clear
6:54 PM 73.0 °F - 55.9 °F 55% 30.23 in 10.0 mi South 11.5 mph - N/A   Clear
7:54 PM 68.0 °F - 57.0 °F 68% 30.23 in 10.0 mi South 9.2 mph - N/A   Clear
8:54 PM 64.9 °F - 55.9 °F 73% 30.25 in 10.0 mi South 8.1 mph - N/A   Clear
9:54 PM 64.0 °F - 55.9 °F 75% 30.25 in 10.0 mi South 5.8 mph - N/A   Clear
10:54 PM 63.0 °F - 57.0 °F 81% 30.25 in 10.0 mi SSW 6.9 mph - N/A   Clear
11:54 PM 62.1 °F - 57.0 °F 84% 30.26 in 10.0 mi SW 3.5 mph - N/A   Clear